Dewpoint
55 56 56 57 57 57 57 58 58 59 59 60 60 60 59 59 60 61 61 61 62 63 63 63 63 63 61 60 59 59 59 60 60 60 61 61 61 60 60 60 60 59 59 58 58 58 59 59 59 60 61 62 62 63 63 63 63 63 63 63 63 64 64 64 63 63 63 63 62 62 61 60 59 58 58 58 58 58 58 58 58 58 58 58 58 58
54 55 56 56 56 57 57 57 58 58 59 59 60 60 60 60 61 61 62 62 62 62 63 63 63 63 63 61 60 59 59 59 60 60 60 60 60 60 60 60 60 60 59 58 58 58 58 58 58 59 60 60 61 62 63 63 63 63 63 63 63 64 64 64 64 63 63 63 62 61 60 59 59 58 58 58 58 58 58 58 58 58 58 58 58 58
54 54 55 56 56 57 57 57 58 58 59 59 60 60 60 60 60 61 61 62 62 62 62 63 63 63 63 62 60 59 59 59 60 60 60 60 60 60 60 60 60 60 59 59 58 58 58 58 58 58 59 59 60 61 61 62 62 62 62 63 63 63 63 63 63 63 63 62 61 61 60 59 59 58 58 58 58 58 58 58 58 58 58 58 58 58
54 55 55 56 56 57 57 58 58 58 58 59 60 60 60 60 60 61 61 62 62 62 62 62 62 62 62 62 61 60 59 59 59 59 60 60 60 60 59 59 59 59 59 59 59 58 58 58 58 58 58 59 59 59 60 60 60 61 61 61 61 62 62 62 62 62 61 61 60 60 59 59 59 59 58 58 58 58 58 59 59 59 59 58 58 58
54 55 55 55 56 56 57 58 58 58 58 59 60 60 61 61 61 61 61 61 62 62 62 62 62 62 62 62 61 60 59 59 59 59 59 59 59 59 59 59 59 59 59 59 59 59 58 58 58 58 58 58 58 58 59 59 59 59 60 60 60 60 60 61 61 60 60 60 59 59 59 59 59 59 58 58 58 59 59 59 59 59 59 59 58 58
53 54 54 55 56 56 57 57 58 58 58 58 59 60 60 61 61 61 61 61 61 61 61 62 62 62 62 62 61 60 58 58 58 58 58 59 59 59 59 59 59 59 59 59 59 59 59 58 58 58 58 58 58 58 58 58 58 58 59 59 59 59 59 60 59 59 59 59 59 59 59 59 58 58 58 58 58 59 59 59 60 60 60 59 59 58
52 53 53 54 55 55 55 56 57 57 58 58 58 59 59 60 60 60 60 60 60 60 61 61 61 62 62 61 60 59 59 58 58 58 58 58 58 58 58 58 59 59 59 59 59 59 59 59 58 58 58 58 58 58 58 58 58 58 58 58 58 59 59 59 59 59 59 59 59 58 58 58 58 58 58 58 58 58 59 59 60 60 60 59 59 58
51 51 51 53 53 53 54 54 55 56 57 57 57 57 58 58 59 59 60 60 60 60 60 60 60 61 61 61 61 60 60 59 59 58 58 58 58 58 58 58 58 58 58 58 59 59 59 59 58 58 58 58 58 58 58 58 58 58 58 58 58 58 58 59 59 59 58 58 58 58 58 58 58 57 57 57 58 58 59 59 60 60 59 59 59 58
51 51 51 52 53 53 53 53 54 55 57 57 57 56 56 57 57 58 58 59 59 59 59 59 59 59 60 61 61 61 61 61 60 60 60 59 59 59 58 58 58 58 58 58 58 58 58 58 58 58 58 58 58 58 58 58 58 58 58 58 58 58 58 58 58 58 58 58 58 58 58 58 57 57 57 57 57 58 58 59 59 59 59 59 58 58
51 51 51 52 53 53 53 53 53 54 55 56 57 56 56 56 56 56 56 57 58 58 59 58 58 58 58 59 59 60 60 60 60 60 60 59 59 59 59 58 58 58 58 58 58 58 58 58 58 58 58 58 58 58 58 57 57 57 57 57 57 58 58 58 58 58 58 58 58 58 58 57 57 56 56 56 56 57 57 58 58 58 58 58 58 58
50 50 50 51 51 52 53 53 52 52 54 55 55 55 56 56 55 55 54 55 55 56 57 58 58 58 58 57 58 58 59 59 59 59 59 58 57 57 57 57 58 58 58 58 58 58 58 58 58 58 57 57 57 57 57 57 57 56 56 57 57 57 57 57 57 57 58 58 58 57 57 57 56 56 56 56 56 56 56 56 57 57 57 58 58 58
49 49 49 50 50 50 51 50 50 50 52 53 54 54 54 55 55 55 54 54 54 55 55 56 57 57 58 57 57 57 58 58 58 59 59 58 58 58 58 58 58 58 58 57 57 57 57 57 57 57 57 57 57 57 57 57 56 56 56 56 56 56 56 57 57 57 57 57 57 57 57 56 56 56 56 56 55 55 55 55 56 56 56 57 57 57
48 48 49 49 49 49 49 49 49 49 51 52 53 53 53 54 55 55 55 54 54 54 54 55 56 57 57 57 57 57 57 58 58 58 58 58 58 58 59 59 59 59 59 58 58 58 57 57 56 57 57 57 56 56 56 56 56 55 56 56 56 56 56 56 56 56 56 57 57 56 56 56 56 56 56 55 55 55 55 55 55 55 55 55 56 56
47 47 48 48 48 49 49 49 49 49 51 52 53 53 53 53 54 54 55 54 54 54 54 54 54 55 56 57 57 57 58 57 57 57 57 58 58 58 58 58 59 59 59 59 59 59 58 58 58 57 57 57 57 56 55 56 55 55 55 56 56 56 56 56 56 56 56 56 56 56 56 56 56 55 55 55 55 54 54 54 54 54 54 54 55 55
46 46 47 47 47 48 49 49 49 50 51 52 52 53 53 53 53 54 54 54 54 54 54 54 54 54 55 56 56 57 58 57 57 57 57 57 58 58 58 58 58 58 59 59 59 59 59 58 59 59 58 58 58 57 56 56 55 55 55 55 55 55 55 55 55 55 55 56 56 56 56 56 55 55 55 55 54 54 54 54 54 54 54 54 54 54
45 46 46 47 47 48 48 49 49 50 50 51 51 52 52 52 53 53 54 54 53 53 53 53 53 53 54 53 53 54 56 57 57 57 56 56 57 57 58 58 58 58 58 58 59 59 59 60 60 59 59 58 57 56 55 57 56 55 55 55 55 55 55 55 55 55 55 55 55 55 55 55 55 55 55 54 54 54 54 54 54 54 54 54 54 54
45 45 46 46 47 47 48 48 49 49 49 50 51 51 52 52 52 53 53 53 53 52 53 52 52 52 52 50 50 51 54 56 57 57 56 56 56 56 58 58 58 57 57 58 58 59 59 59 60 60 60 58 57 56 55 56 55 55 54 54 54 55 54 55 55 55 55 55 55 55 55 55 55 55 54 54 54 54 54 54 54 53 53 54 54 54
44 45 45 46 46 47 47 48 49 49 49 49 50 50 51 52 52 52 53 53 53 52 52 52 52 52 52 51 51 51 51 55 56 56 56 56 55 55 55 57 57 57 57 58 58 58 59 59 60 60 59 58 56 56 55 56 55 55 55 54 54 54 54 54 54 55 55 55 55 55 55 55 54 54 54 54 54 54 53 53 53 53 53 54 54 54
44 44 45 45 45 46 46 47 48 49 49 49 49 49 50 50 51 51 52 52 52 52 52 52 52 52 52 53 51 50 51 54 56 55 55 55 54 53 53 55 57 57 57 57 58 58 58 59 58 58 57 56 56 55 55 55 55 55 55 54 54 54 54 54 54 54 54 55 55 55 55 54 54 54 54 54 54 53 53 53 53 53 53 53 54 54
43 44 45 45 45 45 45 46 48 49 49 49 49 49 49 49 50 50 51 52 52 53 52 52 52 52 53 51 49 48 51 54 55 55 54 54 53 52 52 54 56 56 57 57 57 58 58 58 58 57 55 55 55 55 55 55 55 55 54 54 54 54 54 54 54 54 54 54 55 55 54 54 54 54 54 54 53 53 53 53 53 53 53 53 53 53
43 43 43 44 44 44 45 45 46 48 49 49 49 49 49 49 49 50 50 51 51 52 52 52 52 52 53 52 49 48 52 53 54 54 54 54 52 49 48 53 55 56 56 56 57 57 57 58 58 58 57 56 55 55 54 55 55 55 54 54 54 54 54 54 54 54 54 54 54 54 54 54 54 54 54 53 53 53 53 53 53 53 53 53 53 53
43 42 41 43 44 45 45 45 46 47 47 48 47 47 47 48 48 49 49 50 50 51 51 51 51 51 52 50 48 48 52 53 54 54 54 54 53 50 46 51 54 55 55 56 56 57 57 57 58 58 57 56 55 54 54 54 54 54 54 54 54 54 53 53 53 54 54 54 54 54 54 54 54 54 54 53 53 53 53 53 53 53 53 53 53 53
43 43 42 42 43 45 45 45 45 46 46 47 47 48 48 47 47 48 48 49 50 51 51 50 49 47 45 44 45 47 50 53 54 54 53 52 53 52 46 49 52 54 54 55 56 56 56 57 57 57 56 55 54 54 54 54 54 54 54 54 54 54 54 53 53 53 54 54 54 54 54 54 54 54 53 53 53 53 53 53 52 52 52 52 52 52
43 44 44 43 44 44 45 45 45 45 45 46 46 47 47 46 45 45 46 47 47 46 45 43 44 43 42 43 44 45 49 51 53 54 53 52 52 51 47 49 50 52 53 54 54 54 55 55 56 56 56 55 54 54 54 54 54 54 54 54 54 54 54 54 54 53 54 54 54 54 54 54 54 54 53 53 53 52 52 52 52 52 52 52 52 52
44 44 44 44 44 45 45 45 45 45 45 45 44 44 45 45 45 45 44 44 44 44 45 45 45 44 41 43 43 44 46 48 50 52 52 52 51 49 43 48 50 51 52 52 52 52 54 54 55 55 56 55 54 53 54 54 54 54 54 54 54 54 54 54 54 54 54 54 54 54 54 54 54 54 53 53 53 52 52 52 52 52 51 51 51 51
45 45 45 45 45 45 46 46 46 47 46 46 45 45 45 45 45 45 44 44 44 45 45 45 46 45 42 41 41 42 44 43 43 45 49 51 51 49 42 46 49 51 52 50 49 49 51 53 54 54 55 55 54 54 53 53 53 54 54 54 54 54 54 54 54 54 54 54 54 54 54 54 54 53 53 53 52 52 52 51 51 51 51 51 50 50
45 45 45 45 45 46 47 47 47 47 47 47 47 46 46 45 45 44 44 43 44 45 45 46 46 46 44 42 41 40 40 41 40 40 44 48 49 47 43 45 48 50 50 46 45 45 49 51 52 53 54 54 54 54 53 53 53 53 53 54 54 54 54 54 54 54 54 54 54 54 54 54 53 53 53 52 52 52 51 51 51 51 50 50 50 50
44 44 44 45 45 46 46 47 47 47 47 47 48 48 47 45 45 44 43 43 43 45 45 46 46 46 45 44 41 39 38 40 40 39 40 45 45 44 41 44 46 48 47 43 42 43 45 47 47 48 49 51 52 54 53 52 52 53 53 53 53 53 53 53 53 53 53 53 53 54 54 53 53 53 52 52 52 51 51 51 50 50 50 50 51 51
42 43 44 45 45 45 46 46 47 47 47 47 48 48 47 45 45 44 43 42 43 45 45 45 46 45 45 42 40 38 39 40 40 40 40 44 44 42 40 43 45 45 45 42 41 42 42 42 41 41 44 46 49 50 53 53 53 53 53 52 52 53 53 53 53 53 53 53 53 53 53 53 53 52 52 52 51 51 51 50 50 50 50 50 51 51
40 41 43 43 44 45 45 45 46 46 47 47 48 48 47 45 44 44 43 43 43 44 44 45 45 44 43 40 40 40 41 41 40 40 42 44 44 42 40 42 43 44 45 44 43 43 42 41 39 39 41 43 45 48 51 52 54 54 54 53 53 53 52 52 52 52 52 52 52 52 52 52 52 52 51 51 51 51 50 50 50 50 50 50 50 49
39 40 41 41 42 42 43 43 44 45 45 46 46 45 45 43 43 42 42 42 43 43 44 44 44 43 42 42 41 42 42 40 40 41 43 45 44 42 42 42 43 43 44 45 45 45 44 41 40 39 40 41 44 46 49 51 53 54 55 54 54 54 53 51 51 52 52 52 52 52 52 52 51 51 51 51 50 50 50 50 50 50 49 49 48 48
39 39 40 40 41 41 41 42 42 42 42 43 43 43 43 42 42 42 42 42 42 43 43 43 43 43 43 43 43 43 41 38 39 41 44 45 43 41 42 43 43 43 42 42 44 46 46 42 40 39 40 41 43 45 46 49 51 53 54 54 54 54 53 52 51 52 52 52 51 51 51 51 51 50 50 50 50 49 49 49 49 49 49 48 47 47
39 39 40 40 40 40 40 40 40 40 40 40 40 40 41 41 41 42 41 41 42 42 42 43 43 43 43 43 43 41 39 37 39 41 44 43 42 40 41 42 42 42 41 39 40 42 44 41 40 38 39 41 42 43 44 46 49 50 52 53 53 53 53 52 52 52 52 52 51 51 50 50 50 50 49 49 49 49 49 49 49 49 48 47 46 46
39 40 40 40 40 39 39 39 39 39 39 39 39 39 39 39 40 40 40 40 40 41 41 42 43 43 42 42 42 40 37 37 39 42 44 43 42 41 40 41 42 41 41 40 40 40 40 40 40 39 39 40 41 42 42 44 46 48 49 51 51 51 51 52 52 52 51 51 51 50 50 49 49 49 49 49 49 49 49 49 48 48 48 47 46 45
39 40 40 39 39 39 39 38 38 38 38 37 37 37 38 38 38 38 38 39 39 39 40 40 41 42 42 42 42 41 38 37 40 42 44 43 43 42 41 41 42 42 42 41 41 40 40 40 40 40 40 40 39 40 40 42 44 45 46 48 49 50 50 51 51 50 50 50 49 49 49 49 49 49 49 49 48 48 48 48 48 48 47 47 46 45
39 39 40 39 39 38 38 38 37 37 36 36 36 36 36 36 36 37 37 38 38 39 39 39 39 39 40 40 41 41 39 39 40 42 44 44 43 42 42 41 41 42 43 42 42 42 43 41 41 41 41 40 39 38 39 40 42 43 44 45 47 48 49 49 50 50 49 49 49 48 48 48 48 48 48 48 48 48 48 48 47 47 46 46 46 45
39 39 39 38 37 37 37 36 36 35 35 35 35 36 36 36 36 36 36 37 37 38 39 39 39 39 39 38 38 39 39 39 40 42 43 43 43 42 42 41 41 42 43 43 43 43 44 42 41 40 41 40 39 39 39 40 42 42 43 44 45 45 47 48 49 49 49 48 48 48 48 48 48 48 48 47 47 47 47 47 47 46 46 45 45 45
39 39 39 37 36 36 35 35 35 34 34 34 35 35 36 36 36 36 36 36 36 37 37 38 38 39 40 40 39 38 38 39 40 41 42 42 42 41 42 41 41 42 43 42 43 43 44 42 41 40 41 38 38 39 40 41 42 42 42 43 44 44 45 46 47 47 47 47 47 47 47 47 47 47 47 47 47 46 46 46 46 46 45 45 45 45
38 38 38 37 36 36 34 34 33 34 34 34 35 35 35 36 36 36 36 36 36 36 36 37 37 37 36 37 38 39 38 38 39 40 40 40 40 40 41 41 41 41 41 41 41 42 43 43 42 41 41 39 38 39 40 41 41 42 42 42 43 43 43 44 45 46 46 46 46 46 46 46 46 46 46 46 45 45 44 44 45 45 45 44 44 45
38 38 38 37 36 34 33 33 34 33 34 35 36 36 36 36 36 36 36 36 36 36 36 36 36 36 36 37 37 38 37 37 38 38 38 37 37 38 40 40 40 40 40 40 40 41 43 43 43 42 42 41 40 39 39 40 41 42 42 42 41 41 42 43 44 45 45 45 45 45 45 45 45 45 45 45 44 44 43 43 43 43 44 43 43 43
38 38 37 36 36 35 34 34 34 34 34 34 34 34 35 35 35 35 35 36 36 36 36 36 36 36 36 36 36 36 37 36 36 36 35 35 36 38 40 40 40 40 40 40 40 40 41 42 42 42 42 41 40 40 40 40 41 42 42 42 41 41 42 43 43 43 44 44 44 44 44 44 44 44 44 44 43 43 43 43 42 43 43 42 42 41
38 37 36 35 34 33 33 33 34 34 34 33 33 33 34 34 34 34 34 34 34 34 35 35 36 36 36 36 36 36 36 37 36 36 35 34 35 36 39 40 40 40 41 41 40 40 40 41 41 41 41 41 40 40 39 40 40 41 42 41 41 41 42 42 42 43 43 43 43 43 43 43 43 43 43 43 42 42 43 42 42 42 42 42 41 41
37 36 35 34 33 34 34 35 35 35 34 33 33 33 33 33 34 35 34 34 34 34 34 35 35 35 35 34 34 35 36 36 37 37 37 36 36 37 39 40 40 40 41 41 40 40 40 40 40 40 40 40 40 40 39 40 40 40 41 41 41 40 40 40 41 42 42 42 42 42 42 42 42 42 42 42 42 42 42 42 42 42 42 41 41 41
36 35 34 33 33 34 35 34 34 34 34 33 33 33 33 33 35 35 35 34 34 34 34 34 35 35 34 33 33 33 34 35 36 36 37 38 37 37 38 39 40 40 40 41 40 40 40 40 39 39 40 40 40 40 40 40 40 40 40 40 40 40 39 40 40 41 41 41 41 41 42 42 42 41 41 41 41 41 41 41 41 41 42 41 41 40
35 34 34 34 34 34 34 33 33 33 33 33 32 32 33 34 35 35 35 34 34 34 34 34 35 34 33 32 32 33 33 34 35 36 36 37 38 39 38 39 39 40 40 40 40 40 40 39 39 39 39 40 40 40 40 39 39 40 40 40 40 40 40 40 40 40 40 40 40 41 41 41 41 40 40 40 40 40 40 40 40 40 41 40 40 40
35 34 34 34 34 34 34 34 33 33 33 33 33 33 33 34 34 35 35 34 34 34 34 34 34 34 33 32 32 32 32 33 33 34 35 36 36 37 38 38 38 39 39 39 40 40 40 40 40 40 40 39 39 39 39 39 39 39 39 40 40 39 39 40 40 40 40 40 40 40 40 40 40 40 39 39 39 39 40 40 40 40 40 40 40 40
35 34 34 33 33 34 34 34 33 33 33 33 33 33 33 33 33 34 34 34 34 34 34 34 34 34 33 33 33 32 32 32 32 33 33 34 35 36 36 37 37 38 38 38 39 39 39 39 39 40 40 39 38 38 38 39 39 39 39 39 39 39 39 39 39 40 40 40 40 40 40 40 40 39 38 38 38 38 39 39 40 40 40 40 40 40
35 34 34 34 33 33 33 33 33 33 33 33 32 32 33 33 34 34 34 34 34 34 34 34 33 33 33 32 32 33 33 33 32 32 33 33 34 35 36 36 36 37 37 37 37 37 37 37 37 38 39 39 38 37 37 38 38 38 38 39 39 38 38 38 39 40 40 40 40 40 40 40 39 38 38 38 37 37 38 38 38 39 39 40 40 40
35 35 34 34 33 33 33 33 33 33 33 33 32 32 32 34 35 35 34 34 34 34 34 33 33 33 32 32 32 33 33 33 33 32 33 33 34 35 35 36 36 36 36 36 36 36 36 36 36 37 37 38 38 38 37 37 38 38 38 38 38 38 38 38 39 39 39 39 39 39 40 40 39 39 38 37 36 36 37 37 37 38 38 39 40 40
35 35 34 34 33 33 33 33 33 33 33 33 33 32 32 33 33 33 33 33 33 33 33 33 33 33 32 32 32 32 33 32 32 32 32 33 34 35 36 36 36 36 36 36 36 36 35 36 36 36 37 36 37 37 37 37 37 37 37 37 38 38 37 37 38 38 39 39 39 39 39 39 39 39 38 37 36 36 36 36 36 36 37 38 39 39
35 35 34 34 34 33 33 33 33 33 33 33 33 33 33 33 33 33 33 33 33 33 33 33 33 33 32 32 32 32 32 32 32 32 32 33 34 35 36 36 36 36 36 35 35 34 34 34 34 34 35 36 36 36 36 37 37 36 36 36 37 37 37 37 37 38 38 38 39 39 39 39 39 38 38 37 36 35 35 35 36 36 36 37 38 39